When you browse on this site, cookies collect data to enhance your experience and personalize the content and advertising you see.
Visit our Privacy Policy to learn more. By continuing to use the site, you agree to this use of cookies and data.

Hourly Weather Barra

Today, 9 July, Thursday

Time Temperature Precipitation Wind Pressure Humidity
00:00 +20°C° 0.6 mm 5 mps 752 mmHg 94%
01:00 +20°C° 0.6 mm 4 mps 752 mmHg 94%
02:00 +20°C° 0.6 mm 4 mps 752 mmHg 94%
03:00 +20°C° 0.6 mm 4 mps 751 mmHg 95%
04:00 +19°C° 0 mm 4 mps 751 mmHg 94%
05:00 +19°C° 0.1 mm 4 mps 752 mmHg 95%
06:00 +19°C° 0.1 mm 4 mps 752 mmHg 95%
07:00 +19°C° 0.1 mm 4 mps 752 mmHg 96%
08:00 +20°C° 0.1 mm 3 mps 752 mmHg 94%
09:00 +21°C° 0.1 mm 3 mps 752 mmHg 92%
10:00 +21°C° 0.1 mm 3 mps 752 mmHg 90%
11:00 +22°C° 0.3 mm 3 mps 752 mmHg 87%
12:00 +24°C° 0.3 mm 3 mps 751 mmHg 85%
13:00 +24°C° 0.3 mm 3 mps 751 mmHg 83%
14:00 +24°C° 0.3 mm 3 mps 751 mmHg 83%
15:00 +24°C° 0.3 mm 3 mps 750 mmHg 83%
16:00 +24°C° 0.3 mm 3 mps 750 mmHg 83%
17:00 +23°C° 0.6 mm 4 mps 751 mmHg 86%
18:00 +22°C° 0.6 mm 4 mps 751 mmHg 90%
19:00 +21°C° 0.6 mm 5 mps 752 mmHg 93%
20:00 +21°C° 0.4 mm 5 mps 752 mmHg 93%
21:00 +20°C° 0.4 mm 5 mps 753 mmHg 93%
22:00 +20°C° 0.4 mm 5 mps 753 mmHg 93%
23:00 +20°C° 0.3 mm 5 mps 753 mmHg 93%

Tomorrow, 10 July, Friday

Time Temperature Precipitation Wind Pressure Humidity
00:00 +20°C° 0.3 mm 5 mps 753 mmHg 92%
01:00 +20°C° 0.3 mm 5 mps 752 mmHg 92%
02:00 +20°C° 0.1 mm 5 mps 752 mmHg 92%
03:00 +20°C° 0.1 mm 5 mps 752 mmHg 92%
04:00 +19°C° 0.1 mm 5 mps 752 mmHg 92%
05:00 +19°C° 0 mm 4 mps 752 mmHg 92%
06:00 +19°C° 0 mm 4 mps 752 mmHg 92%
07:00 +19°C° 0 mm 4 mps 752 mmHg 92%
08:00 +20°C° 0.2 mm 4 mps 753 mmHg 90%
09:00 +21°C° 0.2 mm 4 mps 753 mmHg 87%
10:00 +22°C° 0.2 mm 4 mps 753 mmHg 84%
11:00 +23°C° 0.1 mm 4 mps 753 mmHg 80%
12:00 +23°C° 0.1 mm 4 mps 752 mmHg 77%
13:00 +25°C° 0.1 mm 4 mps 751 mmHg 73%
14:00 +25°C° 0.1 mm 4 mps 751 mmHg 75%
15:00 +23°C° 0.1 mm 4 mps 751 mmHg 77%
16:00 +23°C° 0.1 mm 4 mps 751 mmHg 80%
17:00 +22°C° 0.1 mm 4 mps 751 mmHg 84%
18:00 +21°C° 0.1 mm 3 mps 751 mmHg 88%
19:00 +20°C° 0.1 mm 3 mps 752 mmHg 92%
20:00 +19°C° 0 mm 3 mps 752 mmHg 92%
21:00 +19°C° 0 mm 3 mps 752 mmHg 92%
22:00 +19°C° 0 mm 3 mps 753 mmHg 92%
23:00 +19°C° 0.1 mm 2 mps 752 mmHg 93%

Day after tomorrow, 11 July, Saturday

Time Temperature Precipitation Wind Pressure Humidity
00:00 +19°C° 0.1 mm 2 mps 752 mmHg 94%
01:00 +19°C° 0.1 mm 2 mps 752 mmHg 94%
02:00 +19°C° 0.2 mm 3 mps 751 mmHg 95%
03:00 +20°C° 0.2 mm 3 mps 751 mmHg 95%
04:00 +20°C° 0.2 mm 3 mps 751 mmHg 95%
05:00 +20°C° 0.1 mm 3 mps 751 mmHg 96%
06:00 +20°C° 0.1 mm 3 mps 751 mmHg 96%
07:00 +20°C° 0.1 mm 2 mps 751 mmHg 96%
08:00 +20°C° 0.1 mm 3 mps 751 mmHg 94%
09:00 +21°C° 0.1 mm 3 mps 751 mmHg 91%
10:00 +22°C° 0.1 mm 3 mps 752 mmHg 89%
11:00 +22°C° 0.2 mm 3 mps 751 mmHg 88%
12:00 +22°C° 0.2 mm 4 mps 750 mmHg 88%
13:00 +23°C° 0.2 mm 4 mps 750 mmHg 87%
14:00 +22°C° 0.1 mm 4 mps 749 mmHg 88%
15:00 +22°C° 0.1 mm 4 mps 749 mmHg 88%
16:00 +22°C° 0.1 mm 3 mps 749 mmHg 89%
17:00 +22°C° 0.2 mm 3 mps 749 mmHg 91%
18:00 +21°C° 0.2 mm 3 mps 749 mmHg 93%
19:00 +21°C° 0.2 mm 3 mps 750 mmHg 95%
20:00 +21°C° 0.2 mm 3 mps 750 mmHg 96%
21:00 +21°C° 0.2 mm 3 mps 750 mmHg 96%
22:00 +21°C° 0.2 mm 3 mps 751 mmHg 96%
23:00 +21°C° 0.3 mm 3 mps 750 mmHg 96%

12 July, Sunday

Time Temperature Precipitation Wind Pressure Humidity
00:00 +21°C° 0.3 mm 3 mps 750 mmHg 96%
01:00 +21°C° 0.3 mm 3 mps 750 mmHg 96%
02:00 +21°C° 0.4 mm 3 mps 749 mmHg 96%
03:00 +21°C° 0.4 mm 3 mps 749 mmHg 97%
04:00 +21°C° 0.4 mm 4 mps 749 mmHg 97%
05:00 +21°C° 0.3 mm 3 mps 749 mmHg 97%
06:00 +21°C° 0.3 mm 3 mps 750 mmHg 97%
07:00 +21°C° 0.3 mm 3 mps 750 mmHg 97%
08:00 +21°C° 0.3 mm 2 mps 750 mmHg 96%
09:00 +23°C° 0.3 mm 2 mps 750 mmHg 94%
10:00 +23°C° 0.3 mm 2 mps 750 mmHg 93%
11:00 +23°C° 0.4 mm 2 mps 750 mmHg 93%
12:00 +23°C° 0.4 mm 2 mps 750 mmHg 93%
13:00 +23°C° 0.4 mm 2 mps 749 mmHg 93%
14:00 +23°C° 0.3 mm 2 mps 749 mmHg 93%
15:00 +23°C° 0.3 mm 2 mps 749 mmHg 93%
16:00 +22°C° 0.3 mm 3 mps 749 mmHg 93%
17:00 +22°C° 0.1 mm 3 mps 749 mmHg 94%
18:00 +21°C° 0.1 mm 3 mps 749 mmHg 95%
19:00 +21°C° 0.1 mm 3 mps 750 mmHg 96%
20:00 +21°C° 0.1 mm 3 mps 750 mmHg 96%
21:00 +21°C° 0.1 mm 3 mps 751 mmHg 96%
22:00 +21°C° 0.1 mm 3 mps 751 mmHg 97%
23:00 +21°C° 0.1 mm 3 mps 751 mmHg 97%

13 July, Monday

Time Temperature Precipitation Wind Pressure Humidity
00:00 +21°C° 0.1 mm 3 mps 751 mmHg 97%
01:00 +21°C° 0.1 mm 3 mps 750 mmHg 97%
02:00 +21°C° 0 mm 3 mps 750 mmHg 97%
03:00 +21°C° 0 mm 3 mps 750 mmHg 97%
04:00 +21°C° 0 mm 3 mps 750 mmHg 97%
05:00 +21°C° 0 mm 3 mps 751 mmHg 97%
06:00 +21°C° 0 mm 3 mps 751 mmHg 96%
07:00 +21°C° 0 mm 3 mps 752 mmHg 96%
08:00 +21°C° 0 mm 3 mps 752 mmHg 93%
09:00 +22°C° 0 mm 3 mps 752 mmHg 89%
10:00 +24°C° 0 mm 3 mps 753 mmHg 86%
11:00 +25°C° 0.1 mm 3 mps 752 mmHg 82%
12:00 +25°C° 0.1 mm 4 mps 751 mmHg 78%
13:00 +26°C° 0.1 mm 4 mps 751 mmHg 75%
14:00 +26°C° 0 mm 4 mps 750 mmHg 73%
15:00 +26°C° 0 mm 4 mps 750 mmHg 72%
16:00 +25°C° 0 mm 4 mps 750 mmHg 71%
17:00 +23°C° 0 mm 4 mps 750 mmHg 75%
18:00 +22°C° 0 mm 4 mps 751 mmHg 79%
19:00 +21°C° 0 mm 3 mps 751 mmHg 83%
20:00 +20°C° 0 mm 4 mps 752 mmHg 83%
21:00 +20°C° 0 mm 4 mps 752 mmHg 83%
22:00 +19°C° 0 mm 4 mps 753 mmHg 83%
23:00 +19°C° 0 mm 4 mps 753 mmHg 79%

14 July, Tuesday

Time Temperature Precipitation Wind Pressure Humidity
00:00 +20°C° 0 mm 4 mps 752 mmHg 76%
01:00 +20°C° 0 mm 4 mps 752 mmHg 72%
02:00 +19°C° 0 mm 4 mps 752 mmHg 68%
03:00 +19°C° 0 mm 4 mps 752 mmHg 63%
04:00 +19°C° 0 mm 4 mps 752 mmHg 59%
05:00 +18°C° 0 mm 4 mps 752 mmHg 57%
06:00 +17°C° 0 mm 4 mps 752 mmHg 56%
07:00 +15°C° 0 mm 4 mps 753 mmHg 54%
08:00 +18°C° 0 mm 3 mps 753 mmHg 50%
09:00 +19°C° 0 mm 3 mps 753 mmHg 45%
10:00 +21°C° 0 mm 3 mps 753 mmHg 40%
11:00 +22°C° 0 mm 3 mps 753 mmHg 39%
12:00 +22°C° 0 mm 4 mps 752 mmHg 39%
13:00 +23°C° 0 mm 4 mps 751 mmHg 38%
14:00 +23°C° 0 mm 4 mps 751 mmHg 40%
15:00 +22°C° 0 mm 3 mps 751 mmHg 42%
16:00 +22°C° 0 mm 3 mps 750 mmHg 45%
17:00 +20°C° 0 mm 3 mps 751 mmHg 50%
18:00 +18°C° 0 mm 2 mps 751 mmHg 55%
19:00 +17°C° 0 mm 2 mps 751 mmHg 59%
20:00 +17°C° 0 mm 2 mps 752 mmHg 61%
21:00 +16°C° 0 mm 2 mps 752 mmHg 62%
22:00 +16°C° 0 mm 2 mps 752 mmHg 63%
23:00 +16°C° 0 mm 2 mps 752 mmHg 64%
Show more